Morrisville, VT

11:32 AM EDT on September 28, 2016 (GMT -0400)
Morrisville Stowe State

Weather History for KMVL - November, 2011

Change the Weather History Date:

Monday, November 28, 2011

  Actual Average Record
Temperature  
Mean Temperature 50 °F 30 °F  
Max Temperature 58 °F 39 °F 58 °F (2011)
Min Temperature 41 °F 21 °F 1 °F (2012)
Degree Days  
Heating Degree Days 15 35  
Month to date heating degree days 698 827  
Since 1 July heating degree days 1368 1758  
Cooling Degree Days 0 0  
Month to date cooling degree days 0 0  
Year to date cooling degree days 337 265  
Moisture  
Dew Point 43 °F    
Average Humidity 78    
Maximum Humidity 89    
Minimum Humidity 67    
Precipitation  
Precipitation 0.01 in 0.11 in 0.53 in (2004)
Month to date precipitation 0.63 2.90  
Year to date precipitation 33.70 33.14  
Sea Level Pressure  
Sea Level Pressure 30.06 in    
Wind  
Wind Speed 3 mph (SSW)    
Max Wind Speed 13 mph    
Max Gust Speed 16 mph    
Visibility 10 miles    
Events Rain    
T = Trace of Precipitation, MM = Missing Value Source: NWS Daily Summary

Daily Weather History Graph

Daily Weather History Graph

Search for Another Location

Airport or City:

Trip Planner

Search our weather history database for the weather conditions in past years. The results will help you decide how hot, cold, wet, or windy it might be!

Date:

Astronomy

Nov. 28, 2011 Rise Set
Actual Time 7:03 AM EST 4:13 PM EST
Civil Twilight 6:30 AM EST 4:45 PM EST
Nautical Twilight 5:54 AM EST 5:22 PM EST
Astronomical Twilight 5:19 AM EST 5:56 PM EST
Moon 10:09 AM EST 7:58 PM EST
Length of Visible Light 10h 15m
Length of Day
9h 10m
Waxing Crescent, 15% of the Moon is Illuminated
Nov 28
Waxing Crescent
Dec 2
First Quarter
Dec 10
Full
Dec 17
Last Quarter
Dec 24
New

Hourly Weather History & Observations

Time (EST) Temp. Windchill Dew Point Humidity Pressure Visibility Wind Dir Wind Speed Gust Speed Precip Events Conditions
12:54 AM 43.0 °F - 39.0 °F 86% 29.98 in 10.0 mi Calm Calm - N/A   Mostly Cloudy
1:54 AM 43.0 °F - 39.0 °F 86% 29.97 in 10.0 mi Calm Calm - N/A   Overcast
2:54 AM 42.1 °F 40.2 °F 39.0 °F 89% 29.95 in 10.0 mi NW 3.5 mph - N/A   Overcast
3:54 AM 48.0 °F - 42.1 °F 80% 29.95 in 10.0 mi South 4.6 mph - N/A   Mostly Cloudy
4:54 AM 57.0 °F - 46.0 °F 67% 29.95 in 10.0 mi SSW 4.6 mph - N/A   Overcast
5:54 AM 57.0 °F - 46.0 °F 67% 29.96 in 10.0 mi South 3.5 mph - N/A   Overcast
6:54 AM 57.0 °F - 46.9 °F 69% 29.97 in 10.0 mi South 5.8 mph - N/A   Overcast
7:54 AM 57.0 °F - 46.9 °F 69% 29.99 in 10.0 mi SSW 6.9 mph - N/A   Overcast
8:54 AM 53.1 °F - 48.9 °F 86% 30.00 in 10.0 mi Calm Calm - 0.00 in Rain Light Rain
9:54 AM 54.0 °F - 48.9 °F 83% 30.03 in 10.0 mi South 4.6 mph - 0.00 in Rain Light Rain
10:54 AM 54.0 °F - 50.0 °F 86% 30.04 in 10.0 mi Calm Calm - 0.00 in Rain Light Rain
11:02 AM 55.4 °F - 48.2 °F 77% 30.03 in 10.0 mi Variable 6.9 mph - 0.00 in Rain Light Rain
11:54 AM 52.0 °F - 48.9 °F 89% 30.06 in 10.0 mi South 3.5 mph - 0.01 in Rain Light Rain
12:54 PM 54.0 °F - 48.0 °F 80% 30.04 in 10.0 mi Calm Calm - 0.00 in   Overcast
2:54 PM 51.1 °F - 46.0 °F 83% 30.06 in 10.0 mi NNW 9.2 mph - N/A   Mostly Cloudy
3:54 PM 48.9 °F - 44.1 °F 83% 30.10 in 10.0 mi Variable 4.6 mph - N/A   Overcast
4:54 PM 46.9 °F - 43.0 °F 86% 30.10 in 10.0 mi NE 4.6 mph - N/A   Overcast
5:54 PM 46.0 °F 44.8 °F 42.1 °F 86% 30.13 in 10.0 mi North 3.5 mph - N/A   Overcast
6:15 PM 44.6 °F 42.2 °F 42.8 °F 93% 30.13 in 10.0 mi NNE 4.6 mph - N/A   Overcast
6:54 PM 45.0 °F 42.6 °F 41.0 °F 86% 30.15 in 10.0 mi NNE 4.6 mph - N/A   Overcast
7:54 PM 43.0 °F 41.3 °F 39.9 °F 89% 30.14 in 10.0 mi NNE 3.5 mph - N/A   Overcast
8:11 PM 42.8 °F - 39.2 °F 87% 30.14 in 10.0 mi Calm Calm - N/A   Overcast
8:25 PM 42.8 °F - 39.2 °F 87% 30.13 in 10.0 mi Calm Calm - N/A   Overcast
9:54 PM 43.0 °F - 39.9 °F 89% 30.14 in 10.0 mi Calm Calm - N/A   Overcast
10:25 PM 42.8 °F - 39.2 °F 87% 30.12 in 10.0 mi Calm Calm - N/A   Scattered Clouds
10:52 PM 42.8 °F - 39.2 °F 87% 30.13 in 10.0 mi Calm Calm - N/A   Mostly Cloudy
10:54 PM 42.1 °F - 39.0 °F 89% 30.15 in 10.0 mi Calm Calm - N/A   Overcast